This is the latest recevied weather packets stored in our database for station/object KQ7A. If no packets are shown the sender has not sent any weather packets the latest 10 day(s).
| Time | Temp. | Humidity | Pressure | Rain* | Wind** | Luminosity | Snow |
|---|---|---|---|---|---|---|---|
| 1777882990 | 8.33° C | 79% | 1012.6 hPa | 0 mm | - | 0 W/m² | - |
| 1777882686 | 8.33° C | 82% | 1013 hPa | 0 mm | - | 0 W/m² | - |
| 1777882383 | 7.78° C | 83% | 1013 hPa | 0 mm | - | 0 W/m² | - |
| 1777882079 | 7.22° C | 86% | 1013.6 hPa | 0 mm | - | 0 W/m² | - |
| 1777881776 | 7.22° C | 85% | 1013.5 hPa | 0 mm | - | 0 W/m² | - |
| 1777881473 | 7.78° C | 85% | 1013.8 hPa | 0 mm | - | 0 W/m² | - |
| 1777881170 | 7.22° C | 85% | 1013.8 hPa | 0 mm | - | 0 W/m² | - |
| 1777880868 | 7.78° C | 84% | 1013.5 hPa | 0 mm | - | 0 W/m² | - |
| 1777880565 | 7.78° C | 83% | 1013.6 hPa | 0 mm | - | 0 W/m² | - |
| 1777880264 | 7.78° C | 82% | 1013.6 hPa | 0 mm | - | 0 W/m² | - |
| 1777879962 | 7.22° C | 86% | 1013.3 hPa | 0 mm | - | 0 W/m² | - |
| 1777879660 | 6.67° C | 86% | 1013.6 hPa | 0 mm | - | 0 W/m² | - |
| 1777879356 | 7.22° C | 86% | 1013.6 hPa | 0 mm | - | 0 W/m² | - |
| 1777879053 | 7.22° C | 85% | 1013.6 hPa | 0 mm | - | 0 W/m² | - |
| 1777878750 | 7.22° C | 85% | 1013.7 hPa | 0 mm | - | 0 W/m² | - |
| 1777878448 | 7.78° C | 85% | 1014 hPa | 0 mm | - | 0 W/m² | - |
| 1777878143 | 7.22° C | 87% | 1013.8 hPa | 0 mm | - | 0 W/m² | - |
| 1777877840 | 7.22° C | 88% | 1013.8 hPa | 0 mm | - | 0 W/m² | - |
| 1777877537 | 7.78° C | 86% | 1013.6 hPa | 0 mm | - | 0 W/m² | - |
| 1777877233 | 7.78° C | 84% | 1013.7 hPa | 0 mm | - | 0 W/m² | - |
| 1777876931 | 7.78° C | 85% | 1013.5 hPa | 0 mm | - | 0 W/m² | - |
| 1777876629 | 7.22° C | 88% | 1013.8 hPa | 0 mm | - | 0 W/m² | - |
| 1777876327 | 7.78° C | 88% | 1013.3 hPa | 0 mm | - | 0 W/m² | - |
| 1777876022 | 7.78° C | 88% | 1013.5 hPa | 0 mm | - | 0 W/m² | - |
| 1777875717 | 7.78° C | 89% | 1013.5 hPa | 0 mm | - | 0 W/m² | - |
* Rain latest hour (hover to see other rain measurements)
** Current wind speed in m/s (hover to see current wind gust speed)